Social login voor leden:
METAR EBOS 201750Z VRB01KT 9999 FEW033 BKN048 20/16 Q1020 NOSIG
TAF EBOS 201730Z 2018/2124 27004KT 9999 SCT030 BKN040 BECMG 2102/2104 4000 BR BKN012 TEMPO 2104/2107 2500 BKN004 BECMG 2108/2110 6000 NSW SCT015 SCT040

Opendeurdagen 2018 : infodagen opleiding tot privaat piloot

Iedereen is welkom in het clubhuis op onze opendeurdagen op zondag 15 juli, zondag 26 augustus en zondag 23 september 2018, telkens doorlopend van 14 tot 18 uur! Tijdens deze opendeurdagen krijgt u alle informatie betreffende de opleiding tot Privaat Piloot. U kan de handboeken inkijken en vragen stellen aan docenten, flight instructors en ervaren piloten. Bezoek ons modern clubhuis en neem een drankje op ons adembenemend terras met zicht op de runway. We nemen U ook graag mee voor een bezoek aan onze vliegtuigen op Apron 3. Inschrijving voor de opleiding is ter plaatse mogelijk (voorschot €100). Kandidaten die zich hier laten inschrijven kunnen genieten van een korting van €50, dit geldt ook voor de vroege beslissers die zich nu reeds laten inschrijven. Wegens de populariteit van de opleiding, adviseren wij u om tijdig in te schrijven.

 

Opleiding Piloot
Meevliegen
Visit Us
Agenda
Opleiding Piloot
Doopvluchten
Visit Us
Volgende activiteit
Noordzee Vliegclub - Nieuwpoortsesteenweg 947 8400 Oostende - Tel 059 30 04 79 - Dit e-mailadres wordt beveiligd tegen spambots. JavaScript dient ingeschakeld te zijn om het te bekijken.

 - Copyright 2017 ©